Location: San Martino di Castrozza
(46.2667°N, 11.8000°E)
Time: 15:00:27
(UTC+00:00)

Cosmos 2297 - Pass Details

Date: 23 April 2021
Orbit: 837 x 857 km, 71.0° (Epoch: 13 May)

Event Time Altitude Azimuth Distance (km) Brightness Sun altitude
Exits shadow 01:36:48 46° 185° (S) 1,143 4.0 -22.7°
Maximum altitude 01:38:33 74° 113° (ESE) 890 3.8 -22.5°
Drops below altitude 10° 01:44:15 10° 30° (NNE) 2,488 7.2 -21.9°
Sets 01:46:43 0° 28° (NNE) 3,425 8.3 -21.6°
